Consulta les dades en temps real de l'estació municipal de St. Hilari Sacalm
| Hora UTC | 02:50 |
|---|---|
| Temperatura | 18.4 ºC |
| Humitat | 93.8 % |
| Pressió | 1022.7 hPa |
| Pluja | 0.0 mm |
| Velocitat vent | 0.0 km/h |
| Direcció vent | NNE |
| Radiació solar | 0.1 W/m² |
| Temperatura (ºC) | Humitat (%) | Pressió (hPa) | Velocitat vent (km/h) | Precipitació (mm) | Radiació solar (W/m²) | |||||||||||||
|---|---|---|---|---|---|---|---|---|---|---|---|---|---|---|---|---|---|---|
| Hora UTC | Aire | Humitat | Pressió | Vel. | Dir. | Vel. Max | Dir. | Intent. màx 5 min. | Rad. Sol. | |||||||||
| 00:05 | 18.6 | 94.2 | 1023.3 | 0.0 | NNE | 0.0 | ENE | 0.0 | 0.1 | |||||||||
| 00:10 | 18.4 | 94.4 | 1023.3 | 0.0 | NNE | 0.0 | ENE | 0.0 | 0.1 | |||||||||
| 00:15 | 18.4 | 94.9 | 1023.2 | 0.0 | NNE | 0.0 | ENE | 0.0 | 0.1 | |||||||||
| 00:20 | 18.5 | 95.2 | 1023.2 | 0.0 | NNE | 0.0 | ENE | 0.0 | 0.1 | |||||||||
| 00:25 | 18.5 | 95.2 | 1023.2 | 0.0 | NNE | 0.0 | ENE | 0.0 | 0.1 | |||||||||
| 00:30 | 18.4 | 95.5 | 1023.2 | 0.0 | NNE | 0.0 | ENE | 0.0 | 0.1 | |||||||||
| 00:35 | 18.4 | 95.6 | 1023.1 | 0.0 | NNE | 0.0 | ENE | 0.0 | 0.1 | |||||||||
| 00:40 | 18.3 | 95.6 | 1023.2 | 0.0 | NNE | 0.0 | ENE | 0.0 | 0.1 | |||||||||
| 00:45 | 18.3 | 95.6 | 1023.2 | 0.0 | NNE | 0.0 | ENE | 0.0 | 0.1 | |||||||||
| 00:50 | 18.4 | 95.9 | 1023.2 | 0.0 | NNE | 0.0 | ENE | 0.0 | 0.1 | |||||||||
| 00:55 | 18.4 | 95.8 | 1023.1 | 0.0 | NNE | 0.0 | ENE | 0.0 | 0.1 | |||||||||
| 01:00 | 18.3 | 95.7 | 1023.1 | 0.0 | NNE | 0.0 | ENE | 0.0 | 0.1 | |||||||||
| 01:05 | 18.3 | 95.8 | 1023.1 | 0.0 | NNE | 0.0 | ENE | 0.0 | 0.1 | |||||||||
| 01:10 | 18.4 | 95.9 | 1023.1 | 0.0 | NNE | 0.0 | SE | 0.0 | 0.1 | |||||||||
| 01:15 | 18.4 | 95.9 | 1023.1 | 0.0 | NNE | 0.0 | SSE | 0.0 | 0.1 | |||||||||
| 01:20 | 18.4 | 95.8 | 1023.1 | 0.0 | NNE | 0.0 | SSE | 0.0 | 0.1 | |||||||||
| 01:25 | 18.4 | 95.8 | 1023.1 | 0.0 | NNE | 0.0 | SSE | 0.0 | 0.1 | |||||||||
| 01:30 | 18.4 | 95.7 | 1023.1 | 0.0 | NNE | 0.0 | SSE | 0.0 | 0.1 | |||||||||
| 01:35 | 18.4 | 95.5 | 1023.1 | 0.0 | NNE | 0.0 | SSE | 0.0 | 0.1 | |||||||||
| 01:40 | 18.4 | 95.5 | 1023.1 | 0.0 | NNE | 0.0 | SSE | 0.0 | 0.1 | |||||||||
| 01:45 | 18.4 | 95.5 | 1023.1 | 0.0 | NNE | 0.0 | SSE | 0.0 | 0.1 | |||||||||
| 01:50 | 18.5 | 95.6 | 1023.1 | 0.0 | NNE | 0.0 | SSE | 0.0 | 0.1 | |||||||||
| 01:55 | 18.4 | 95.3 | 1023.1 | 0.0 | NNE | 0.0 | SSE | 0.0 | 0.1 | |||||||||
| 02:00 | 18.3 | 95.1 | 1023.0 | 0.0 | NNE | 0.0 | SSE | 0.0 | 0.1 | |||||||||
| 02:05 | 18.4 | 95.0 | 1023.0 | 0.0 | NNE | 0.0 | W | 0.0 | 0.1 | |||||||||
| 02:10 | 18.3 | 95.1 | 1023.0 | 0.0 | NNE | 0.0 | W | 0.0 | 0.1 | |||||||||
| 02:15 | 18.5 | 95.3 | 1023.0 | 0.0 | NNE | 0.0 | S | 0.0 | 0.1 | |||||||||
| 02:20 | 18.6 | 95.1 | 1023.0 | 0.0 | NNE | 0.0 | S | 0.0 | 0.2 | |||||||||
| 02:25 | 18.7 | 94.7 | 1022.9 | 0.0 | NNE | 0.0 | SSW | 0.0 | 0.1 | |||||||||
| 02:30 | 18.7 | 94.5 | 1022.9 | 0.0 | NNE | 0.0 | S | 0.0 | 0.1 | |||||||||
| 02:35 | 18.7 | 94.3 | 1022.9 | 0.0 | NNE | 0.0 | S | 0.0 | 0.1 | |||||||||
| 02:40 | 18.6 | 94.0 | 1022.8 | 0.0 | NNE | 0.0 | S | 0.0 | 0.1 | |||||||||
| 02:45 | 18.5 | 93.9 | 1022.7 | 0.0 | NNE | 0.0 | WSW | 0.0 | 0.1 | |||||||||
| 02:50 | 18.4 | 93.8 | 1022.7 | 0.0 | NNE | 0.0 | WNW | 0.0 | 0.1 | |||||||||
| Màxima | 18.7 | 95.9 | 1023.3 | 0.0 | NNE | 0.0 | WNW | 0.0 | 0.2 | |||||||||
| Mínima | 18.3 | 93.8 | 1022.7 | |||||||||||||||
| Total | 0.0 | |||||||||||||||||